This is the latest recevied weather packets stored in our database for station/object KF6RAL-6. If no packets are shown the sender has not sent any weather packets the latest 10 day(s).
| Time | Temp. | Humidity | Pressure | Rain* | Wind** | Luminosity | Snow |
|---|---|---|---|---|---|---|---|
| 1777203537 | 10° C | 75% | 999.5 hPa | 0 mm | - | - | - |
| 1777203116 | 10° C | 75% | 999.6 hPa | 0.25 mm | - | - | - |
| 1777202695 | 10° C | 75% | 999.8 hPa | 0.25 mm | - | - | - |
| 1777202274 | 10° C | 75% | 999.8 hPa | 0.25 mm | - | - | - |
| 1777201853 | 10° C | 75% | 999.9 hPa | 0.25 mm | - | - | - |
| 1777201432 | 10° C | 76% | 1000 hPa | 0.25 mm | - | - | - |
| 1777201011 | 10° C | 76% | 1000 hPa | 0.25 mm | - | - | - |
| 1777200590 | 10° C | 76% | 1000 hPa | 0.25 mm | - | - | - |
| 1777200169 | 10° C | 75% | 1000.1 hPa | 0.51 mm | - | - | - |
| 1777199748 | 10° C | 75% | 1000.1 hPa | 0.25 mm | - | - | - |
| 1777199327 | 10° C | 74% | 1000.2 hPa | 0.25 mm | - | - | - |
| 1777198906 | 10° C | 74% | 1000.3 hPa | 0.25 mm | - | - | - |
| 1777198485 | 10° C | 73% | 1000.4 hPa | 0.51 mm | - | - | - |
| 1777198064 | 10° C | 73% | 1000.5 hPa | 0.51 mm | - | - | - |
| 1777197643 | 10° C | 72% | 1000.6 hPa | 0.51 mm | - | - | - |
| 1777197222 | 10° C | 72% | 1000.6 hPa | 0.51 mm | - | - | - |
| 1777196801 | 10.56° C | 71% | 1000.6 hPa | 0.51 mm | - | - | - |
| 1777196380 | 10.56° C | 69% | 1000.6 hPa | 0.25 mm | - | - | - |
| 1777195959 | 10.56° C | 68% | 1000.7 hPa | 0.25 mm | - | - | - |
| 1777195539 | 10.56° C | 67% | 1000.7 hPa | 0.25 mm | - | - | - |
| 1777195117 | 11.11° C | 65% | 1000.7 hPa | 0 mm | - | - | - |
| 1777194696 | 11.67° C | 62% | 1000.6 hPa | 0 mm | - | - | - |
| 1777194275 | 12.22° C | 58% | 1000.6 hPa | 0 mm | - | - | - |
| 1777193854 | 12.22° C | 60% | 1000.7 hPa | 0 mm | - | - | - |
| 1777193433 | 12.78° C | 53% | 1001.2 hPa | 0 mm | - | - | - |
* Rain latest hour (hover to see other rain measurements)
** Current wind speed in m/s (hover to see current wind gust speed)